Location: Gwatt
(46.7204°N, 7.6223°E)
Time: 06:38:37
(UTC+00:00)

Ariane Rocket - Pass Details

Date: 18 September 2020
Orbit: 761 x 769 km, 98.7° (Epoch: 23 October)

Event Time Altitude Azimuth Distance (km) Brightness Sun altitude
Exits shadow 18:09:46 - 131° (SE) 2,866 5.4 -6.8°
Reaches altitude 10° 18:11:21 10° 124° (ESE) 2,296 4.9 -7.1°
Maximum altitude 18:15:43 30° 64° (ENE) 1,348 3.9 -7.8°
Drops below altitude 10° 18:20:06 10° 4° (N) 2,315 5.6 -8.6°
Sets 18:22:38 0° 354° (N) 3,247 6.5 -9.0°
